Hourly Data Report for November 11, 2019

All times are specified in Local Standard Time (LST). Add 1 hour to adjust for Daylight Saving Time where and when it is observed.

QUALICUM BEACH AIRPORT
BRITISH COLUMBIA
Current Station Operator: ECCC - MSC

49°20'14.000" N
124°23'38.000" W
58.20 m
1026562
71766
VOQ

Download Data

Hourly Data (November 2019)
Hourly Data Report for November 11, 2019
TIME Temp Definition
°C
Dew Point Definition
°C
Rel Hum Definition
%
Wind Dir Definition
10's deg

Wind Spd Definition
km/h
Visibility Definition
km
Stn Press Definition
kPa
Hmdx Definition


Wind Chill Definition


Weather Definition


00:00 4.4 4.2 98 0 1   102.07     LegendNANA
01:00 4.7 4.4 98   0   102.11     LegendNANA
02:00 5.3 5.1 98 0 1   102.06     LegendNANA
03:00 5.3 5.0 98   0   102.07     LegendNANA
04:00 5.4 5.1 98 0 1   102.04     LegendNANA
05:00 6.2 5.9 98 25 2   102.05     LegendNANA
06:00 6.1 5.8 98 0 1   102.02     LegendNANA
07:00 6.6 6.3 98 23 2   101.99     LegendNANA
08:00 6.8 6.5 98   0   101.98     LegendNANA
09:00 7.5 7.2 98   0   101.98     LegendNANA
10:00 7.9 7.6 98 15 3   101.94     LegendNANA
11:00 8.3 7.9 98 12 4   101.90     LegendNANA
12:00 8.4 7.9 97 10 4   101.82     LegendNANA
13:00 8.7 8.0 95 0 1   101.78     LegendNANA
14:00 8.8 7.9 94 30 5   101.76     LegendNANA
15:00 8.6 7.7 94 30 8   101.76     LegendNANA
16:00 8.4 7.5 95 27 2   101.71     LegendNANA
17:00 7.9 7.3 96 17 2   101.54     LegendNANA
18:00 7.6 7.1 96 31 4   101.50     LegendNANA
19:00 7.7 7.2 96 28 5   101.54     LegendNANA
20:00 7.5 7.0 97 12 2   101.45     LegendNANA
21:00 7.6 7.1 97 0 1   101.52     LegendNANA
22:00 7.5 7.0 97 28 1   101.43     LegendNANA
23:00 7.3 6.9 97   0   101.39     LegendNANA

Notes on Data Quality.

Legend

  • E = Estimated
  • M = Missing
  • NA = Not Available
Date modified: